Location: Bennemühlen
(52.5740°N, 9.7135°E)
Time: 18:25:32
(UTC+00:00)

A-11 Canister half - Pass Details

Date: 23 February 2026
Orbit: 1512 x 1687 km, 47.2° (Epoch: 8 March)

Event Time Altitude Azimuth Distance (km) Brightness Sun altitude
Rises 20:35:39 0° 249° (WSW) 4,939 12.1 -33.9°
Reaches altitude 10° 20:38:52 10° 246° (WSW) 3,948 11.4 -34.3°
Enters shadow 20:47:41 59° 197° (SSW) 1,878 9.2 -35.4°
Maximum altitude 20:48:48 63° 169° (S) 1,832 - -35.6°
Drops below altitude 10° 20:58:31 10° 92° (E) 3,862 - -36.7°
Sets 21:01:38 0° 89° (E) 4,826 - -37.1°
